Location: Wanzleben
(52.0609°N, 11.4408°E)
Time: 17:51:53
(UTC+00:00)

ATLAS 3B R/B - Pass Details

Date: 18 September 2020
Orbit: 1016 x 1179 km, 63.8° (Epoch: 04 October)

Event Time Altitude Azimuth Distance (km) Brightness Sun altitude
Rises 21:21:21 0° 314° (NW) 3,830 6.7 -32.0°
Reaches altitude 10° 21:24:00 10° 310° (NW) 2,893 5.7 -32.2°
Enters shadow 21:30:03 51° 252° (WSW) 1,342 3.1 -32.7°
